Weather History for Defiance, OH

Change the Weather History Date:

Saturday, January 19, 2013

  Actual Average Record
Temperature  
Mean Temperature 42 °F -  
Max Temperature 50 °F 30 °F 59 °F (1973)
Min Temperature 35 °F 13 °F -15 °F (1984)
Degree Days  
Heating Degree Days 22    
Moisture  
Dew Point 28 °F    
Average Humidity 56    
Maximum Humidity 68    
Minimum Humidity 46    
Precipitation  
Precipitation 0.00 in - - ()
Sea Level Pressure  
Sea Level Pressure 29.92 in    
Wind  
Wind Speed 15 mph (SW)    
Max Wind Speed 23 mph    
Max Gust Speed 39 mph    
Visibility 10 miles    
Events      
Averages and records for this station are not official NWS values.
T = Trace of Precipitation, MM = Missing Value Source: NWS Daily Summary

Daily Weather History Graph

Daily Weather History Graph

Search for Another Location

Airport:

Trip Planner

Search our weather history database for the weather conditions in past years. The results will help you decide how hot, cold, wet, or windy it might be!

Date:

Astronomy

Jan. 19, 2013 Rise Set
Actual Time 7:59 AM EST 5:38 PM EST
Civil Twilight 7:29 AM EST 6:08 PM EST
Nautical Twilight 6:55 AM EST 6:42 PM EST
Astronomical Twilight 6:22 AM EST 7:15 PM EST
Moon 12:04 PM EST 1:31 AM EST
Length of Visible Light 10h 39m
Length of Day
9h 39m
First Quarter, 57% of the Moon is Illuminated
Jan 19
First Quarter
Jan 26
Full
Feb 3
Last Quarter
Feb 10
New
Feb 17
First Quarter

Hourly Weather History & Observations

Time (EST) Temp. Windchill Dew Point Humidity Pressure Visibility Wind Dir Wind Speed Gust Speed Precip Events Conditions
12:53 AM 37.9 °F 29.2 °F 23.0 °F 55% 30.05 in 10.0 mi SW 15.0 mph 24.2 mph N/A   Clear
1:53 AM 37.9 °F 29.2 °F 23.0 °F 55% 30.04 in 10.0 mi SW 15.0 mph 26.5 mph N/A   Clear
2:53 AM 37.9 °F 29.2 °F 23.0 °F 55% 30.04 in 10.0 mi SW 15.0 mph 25.3 mph N/A   Clear
3:53 AM 37.9 °F 27.9 °F 23.0 °F 55% 30.03 in 10.0 mi SW 19.6 mph 26.5 mph N/A   Clear
4:53 AM 37.9 °F 29.2 °F 23.0 °F 55% 30.02 in 10.0 mi SW 15.0 mph 25.3 mph N/A   Clear
5:53 AM 37.0 °F 29.3 °F 24.1 °F 59% 30.03 in 10.0 mi SW 11.5 mph 19.6 mph N/A   Clear
6:53 AM 36.0 °F 28.0 °F 24.1 °F 62% 30.03 in 10.0 mi SW 11.5 mph - N/A   Clear
7:53 AM 35.1 °F 27.4 °F 24.1 °F 64% 30.03 in 10.0 mi SSW 10.4 mph - N/A   Clear
8:53 AM 37.0 °F 29.3 °F 25.0 °F 62% 30.03 in 10.0 mi SSW 11.5 mph - N/A   Clear
9:53 AM 39.9 °F 32.1 °F 26.1 °F 58% 30.03 in 10.0 mi SSW 13.8 mph - N/A   Clear
10:53 AM 43.0 °F 35.1 °F 26.1 °F 51% 30.01 in 10.0 mi SW 17.3 mph 26.5 mph N/A   Clear
11:53 AM 45.0 °F 37.1 °F 27.0 °F 49% 29.97 in 10.0 mi SW 19.6 mph 28.8 mph N/A   Clear
12:53 PM 46.9 °F - 28.9 °F 50% 29.92 in 10.0 mi SW 18.4 mph 29.9 mph N/A   Clear
1:53 PM 48.9 °F - 30.0 °F 48% 29.87 in 10.0 mi SW 20.7 mph 32.2 mph N/A   Clear
2:53 PM 50.0 °F - 30.0 °F 46% 29.85 in 10.0 mi SW 23.0 mph 39.1 mph N/A   Clear
3:53 PM 50.0 °F - 30.9 °F 48% 29.83 in 10.0 mi SW 18.4 mph 25.3 mph N/A   Clear
4:53 PM 48.0 °F - 30.9 °F 52% 29.81 in 10.0 mi SW 13.8 mph 26.5 mph N/A   Clear
5:53 PM 48.0 °F - 30.9 °F 52% 29.81 in 10.0 mi SW 17.3 mph 28.8 mph N/A   Mostly Cloudy
6:53 PM 46.9 °F - 32.0 °F 56% 29.81 in 10.0 mi SW 15.0 mph 25.3 mph N/A   Scattered Clouds
7:53 PM 44.1 °F 37.7 °F 32.0 °F 63% 29.80 in 10.0 mi SW 12.7 mph - N/A   Clear
8:53 PM 44.1 °F 37.1 °F 32.0 °F 63% 29.77 in 10.0 mi SW 15.0 mph - N/A   Clear
9:53 PM 45.0 °F 38.2 °F 33.1 °F 63% 29.75 in 10.0 mi SW 15.0 mph 25.3 mph N/A   Clear
10:53 PM 43.0 °F 36.0 °F 33.1 °F 68% 29.74 in 10.0 mi SW 13.8 mph 21.9 mph N/A   Clear
11:53 PM 44.1 °F 38.1 °F 33.1 °F 65% 29.73 in 10.0 mi WSW 11.5 mph 24.2 mph N/A   Clear